Welcome to the New NWS' Forecast!
Most changes are behind the scenes, but click here for differences you might notice.
Latest weather observations around

Auburn-Opelika Airport (KAUO)

Using English Units (Switch to International System of Units)
Date/ Time (CDT) Wind (mph) Vis. (mi) Weather Sky Cond. Temp (°F) Rel. Humidity Wind Chill (°F) Heat Index (°F) Pressure Precip. (in)
Air Dwpt 6 hour Altimeter (inHg) Sea level (inHg) 1 hr 3 hr 6 hr
Max Min
Oct 21 13:56 3 10 Clear CLR 61 35     38%     30.21 30.28      
Oct 21 12:56 N 9 10 Clear CLR 60 37     42%     30.24 30.3      
Oct 21 11:56 NNE 13 10 Clear CLR 57 33     40%     30.26 30.32      
Oct 21 10:56 NE 13 10 Clear CLR 54 32     43%     30.26 30.33      
Oct 21 09:56 N 11 10 Clear CLR 51 31     46%     30.26 30.33      
Oct 21 08:56 NNE 14 10 Clear CLR 48 31     51% 42   30.25 30.33      
Oct 21 07:56 N 13 10 Clear CLR 47 33     58% 41   30.22 30.29      
Oct 21 05:56 N 9 10 Clear CLR 48 40     73% 44   30.16 30.23      
Oct 21 04:56 N 9 10 Clear CLR 50 41     71%     30.14 30.2      
Oct 21 03:56 NNW 9 10 Clear CLR 51 46     83%     30.12 30.18      
Oct 21 02:56 NNW 6 10 Clear CLR 51 49     92%     30.12 30.18      
Oct 21 01:56 NNW 6 10 Clear CLR 52 50     93%     30.12 30.17      
Oct 21 00:56 NNW 7 10 Clear CLR 54 51     90%     30.12 30.18      
Oct 20 23:56 NNW 6 10 Clear CLR 56 53     90%     30.13 30.18      
Oct 20 22:56 NW 8 10 Clear CLR 57 55     93%     30.13 30.18      
Oct 20 21:56 NW 8 10 Clear CLR 58 57     97%     30.12 30.17      
Oct 20 20:56 NNW 9 10 Clear CLR 60 57     90%     30.1 30.15      
Oct 20 19:56 WNW 9 10 Clear CLR 62 59     90%     30.08        
Oct 20 18:56 NW 8 10 Mostly Cloudy BKN120 64 59     84%     30.06 30.11     0
Oct 20 17:56 NW 8 10 Partly Cloudy FEW060 SCT120 65 61     87%     30.04 30.08      
Oct 20 16:56 NW 14 10 Cloudy SCT020 OVC085 67 61     81%     30.02 30.06      
Oct 20 15:56 NW 8 10 Cloudy SCT018 BKN029 OVC080 69 63     81%     30.01 30.06   0  
Oct 20 14:56 NW 7 10 Mostly Cloudy FEW012 BKN080 68 63     84%     30.01 30.05 0    
Oct 20 14:08 NNW 10 10 Cloudy SCT027 OVC070 66 64     94%     30.03   0    
Oct 20 13:56 NNW 10 10 Light Rain FEW009 BKN026 BKN034 67 65     93%     30.03 30.07 0    
Oct 20 13:14 NNW 8 10 Light Rain SCT008 BKN035 OVC042 68 66     94%     30.04   0    
Oct 20 13:07 N 10 10 Light Rain BKN010 BKN017 OVC038 68 66     94%     30.04   0    
Oct 20 12:59 NNW 10 9 Light Rain SCT013 BKN030 OVC036 68 66     94%     30.05   0    
Oct 20 12:40 NW 6 8 Light Rain FEW005 BKN016 OVC035 68 66     94%     30.05   0    
Oct 20 12:25 WNW 6 3 Rain and Fog/Mist SCT008 BKN014 OVC037 68 66     94%     30.06   0    
Oct 20 12:23 WNW 7 2.5 Heavy Rain and Fog/Mist SCT008 BKN018 OVC044 68 66     94%     30.06   0    
Oct 20 12:16 NNW 16 4 Heavy Rain and Fog/Mist FEW006 BKN011 OVC039 70 66     88%     30.06   0    
Oct 20 11:56 WSW 8 10 Cloudy BKN011 BKN020 OVC100 74 71     91%   75 30.05 30.09      
Oct 20 11:52 WSW 10 10 Cloudy SCT007 BKN011 OVC033 73 72     94%   75 30.05        
Oct 20 11:27 WSW 8 10 Cloudy BKN006 OVC011 73 72     94%   75 30.06        
Oct 20 10:56 6 6 Fog/Mist OVC004 72 71     97%   73 30.08 30.11 0    
Oct 20 10:24 WSW 8 5 Fog/Mist OVC004 72 72     100%   73 30.08        
Oct 20 09:37 SW 9 2 Fog/Mist OVC002 72 70     94%   73 30.08        
Oct 20 09:26 WSW 9 1.75 Fog/Mist OVC002 72 70     94%   73 30.08        
Oct 20 09:16 WSW 7 1 Fog/Mist OVC002 72 70     94%   73 30.08        
Oct 20 09:09 WSW 7 0.5 Fog OVC002 70 70     100%     30.08        
Oct 20 08:56 WSW 8 0.25 Fog OVC002 70 70     100%     30.07 30.12      
Oct 20 08:36 SW 8 0.25 Fog   70 70     100%     30.07        
Notice The following observation data may not be complete
Oct 20 07:56     Clear            %              
Oct 20 07:21     Clear   70 70     100%              
Oct 20 06:56 WSW 6 0.25 Fog OVC002 69 69     100%     30.06 30.1     0
Oct 20 06:48 WSW 6 0.25 Fog OVC002 70 70     100%     30.06        
Oct 20 06:43 SW 6 0.75 Fog/Mist OVC002 70 70     100%     30.06        
Oct 20 06:37 WSW 6 1.75 Fog/Mist OVC002 70 70     100%     30.05        
Oct 20 06:31 SW 7 3 Fog/Mist OVC002 70 70     100%     30.05        
Oct 20 06:05 W 3 6 Fog/Mist OVC004 68 68     100%     30.06        
Oct 20 05:56 SW 3 6 Fog/Mist OVC006 68 68     100%     30.06 30.1      
Oct 20 05:35 SW 6 8 Mostly Cloudy BKN008 BKN070 68 66     94%     30.06        
Oct 20 05:23 SW 6 9 Partly Cloudy FEW008 SCT012 SCT070 66 66     100%     30.06        
Oct 20 05:07 SW 5 7 Mostly Cloudy SCT003 BKN012 BKN070 66 66     100%     30.06        
Oct 20 04:56 SW 5 5 Fog/Mist BKN003 OVC012 67 66     97%     30.07 30.11      
Oct 20 04:30 SSW 7 10 Mostly Cloudy BKN003 BKN011 66 64     94%     30.07        
Oct 20 04:23 SW 5 10 Mostly Cloudy SCT005 BKN011 66 64     94%     30.07        
Oct 20 03:56 S 5 9 Mostly Clear FEW048 65 65     100%     30.06 30.1 0 0  
Oct 20 02:56 Calm 10 Mostly Cloudy FEW020 SCT033 BKN110 65 63     93%     30.08 30.12      
Oct 20 01:56 Calm 10 Partly Cloudy SCT032 65 63     93%     30.1 30.15      
Oct 20 00:56 Calm 10 Clear CLR 66 63     90%     30.12 30.16      
Oct 19 23:56 ESE 3 10 Clear CLR 67 63     87%     30.14 30.18      
Oct 19 23:18 5 10 Partly Cloudy FEW024 SCT037 66 64     94%     30.15        
Oct 19 22:56 E 3 10 Mostly Cloudy BKN024 67 64     90%     30.15 30.2      
Oct 19 22:48 ESE 3 10 Mostly Cloudy BKN022 66 64     94%     30.15        
Oct 19 21:56 E 5 10 Clear CLR 67 65     93%     30.16 30.2      
Oct 19 20:56 ENE 3 10 Clear CLR 68 64     87%     30.15 30.2      
Oct 19 19:56 ENE 3 10 Clear CLR 68 65     90%     30.16 30.21      
Oct 19 18:56 Calm 10 Clear CLR 69 65     87%     30.16 30.22      
Oct 19 16:56 Calm 10 Partly Cloudy SCT024 74 66     76%   75 30.17 30.22      
Oct 19 16:19 3 9 Partly Cloudy SCT024 SCT035 73 64     73%   74 30.17        
Oct 19 15:56 S 5 10 Cloudy OVC022 74 65     74%   74 30.18 30.22      
Oct 19 15:39 S 3 10 Cloudy SCT022 BKN028 OVC041 73 64     73%   74 30.18        
Oct 19 15:30 S 6 10 Cloudy SCT026 BKN032 OVC041 73 64     73%   74 30.18        
Oct 19 14:56 Calm 10 Cloudy BKN024 OVC033 74 64     71%   74 30.19 30.24      
Oct 19 14:18 Calm 10 Mostly Cloudy BKN024 BKN034 73 63     69%   74 30.2        
Oct 19 14:03 SSE 6 10 Partly Cloudy SCT024 SCT034 73 63     69%   74 30.21        
Oct 19 13:56 3 10 Mostly Cloudy BKN024 BKN034 73 63     71%   73 30.21 30.26      
Oct 19 13:28 Calm 10 Mostly Cloudy BKN024 BKN032 73 63     69%   74 30.23        
Oct 19 12:56 SE 5 10 Mostly Clear FEW021 72 61     68%   72 30.24 30.28      
Oct 19 11:56 ESE 7 10 Cloudy OVC017 69 59     70%     30.28 30.32      
Oct 19 10:56 5 10 Cloudy OVC015 67 58     73%     30.3 30.35      
Oct 19 09:56 ESE 8 10 Cloudy FEW015 BKN027 OVC035 65 55     70%     30.31 30.36      
Oct 19 08:56 E 7 10 Cloudy OVC019 63 54     72%     30.31 30.36      
Oct 19 07:56 E 8 10 Cloudy BKN020 OVC029 61 54     78%     30.3 30.35      
Oct 19 06:56 ENE 7 10 Cloudy OVC024 60 53     78%     30.29 30.35      
Oct 19 05:56 ENE 5 10 Cloudy OVC023 60 54     80%     30.29 30.35      
Oct 19 04:56 E 7 10 Cloudy OVC018 60 54     80%     30.28 30.33      
Oct 19 04:25 ENE 8 10 Cloudy OVC016 61 54     77%     30.28        
Oct 19 04:17 E 8 10 Cloudy BKN014 OVC021 61 54     77%     30.28        
Oct 19 03:56 E 8 10 Mostly Cloudy BKN019 60 53     78%     30.28 30.33      
Oct 19 03:16 ENE 8 10 Clear   61 54     77%     30.29        
Oct 19 01:56 ENE 8 10 Clear CLR 61 53     75%     30.29 30.34      
Oct 19 00:56 ENE 7 10 Clear CLR 62 54     75%     30.3 30.34      
Oct 18 23:56 E 8 10 Clear CLR 63 54     72%     30.3 30.35      
Oct 18 22:56 ENE 9 10 Clear CLR 64 55     73%     30.31 30.36      
Oct 18 21:56 ENE 8 10 Clear CLR 64 56     75%     30.32 30.37      
Oct 18 20:56 ENE 7 10 Clear CLR 65 56     73%     30.32 30.37      
Oct 18 19:56 NE 6 10 Clear CLR 65 57     76%     30.31 30.37      
Oct 18 18:56 NNE 6 10 Clear CLR 67 57     71%     30.3 30.36      
Oct 18 17:56 N 6 10 Clear CLR 70 57     63%     30.29 30.34      
Oct 18 16:56 N 8 10 Clear CLR 73 56     55%   73 30.29 30.34      
Oct 18 15:56 N 7 10 Clear CLR 75 55     50%   75 30.28 30.33      
Oct 18 14:56 NNE 7 10 Clear CLR 75 54     48%   74 30.28 30.32      
Oct 18 13:56 N 6 10 Clear CLR 74 54     50%   73 30.29 30.34      
Oct 18 12:56 E 6 10 Clear CLR 73 52     48%   72 30.31 30.36      
Oct 18 11:56 NE 9 10 Clear CLR 71 52     51%   70 30.34 30.39      
Oct 18 10:56 NE 10 10 Clear CLR 68 50     53%     30.35 30.4      
Oct 18 09:56 ENE 9 10 Clear CLR 66 49     54%     30.35 30.41      
Oct 18 08:56 NE 10 9 Clear CLR 62 49     62%     30.34 30.4      
Oct 18 07:56 NE 11 10 Clear CLR 57 49     74%     30.33 30.39      
Oct 18 06:56 NNE 8 10 Clear CLR 55 48     77%     30.32 30.37      
Oct 18 05:56 NNE 11 10 Clear CLR 56 47     72%     30.3 30.35      
Oct 18 04:56 NNE 13 10 Clear CLR 56 48     75%     30.29 30.34      
Oct 18 03:56 N 13 10 Clear CLR 57 48     72%     30.29 30.33      
Oct 18 02:56 NNE 10 10 Partly Cloudy SCT060 58 48     70%     30.29 30.34      
Oct 18 01:56 NNE 11 10 Clear CLR 59 48     67%     30.28 30.33      
Oct 18 00:56 NNE 11 10 Clear CLR 60 48     64%     30.28 30.33      
Oct 17 23:56 NNE 11 10 Clear CLR 60 49     67%     30.29 30.34      
Oct 17 22:56 N 7 10 Clear CLR 61 51     70%     30.3 30.35      
Oct 17 21:56 N 6 10 Clear CLR 62 52     70%     30.3 30.35      
Oct 17 20:56 N 6 10 Clear   63 52     67%     30.28 30.33      
Oct 17 19:56 N 7 10 Clear CLR 66 56     70%     30.27 30.32      
Oct 17 18:56 N 8 10 Mostly Clear FEW080 68 61     78%     30.25 30.3      
Oct 17 17:56 N 9 10 Clear CLR 70 64     81%     30.24 30.28      
Oct 17 16:56 N 7 10 Clear CLR 74 64     71%   74 30.22 30.26      
Oct 17 15:56 N 9 10 Cloudy OVC050 76 64     67%   76 30.21 30.25      
Oct 17 14:56 N 9 10 Mostly Cloudy BKN047 76 65     69%   76 30.21 30.25      
Oct 17 13:56 NNW 9 10 Cloudy FEW020 OVC047 74 65     74%   74 30.22 30.26      
Oct 17 13:54 6 10 Cloudy SCT020 OVC047 73 64     73%   74 30.22        
Oct 17 13:30 NNW 9 10 Cloudy BKN020 OVC047 73 64     73%   74 30.23        
Oct 17 12:56 N 7 10 Cloudy OVC047 75 65     71%   76 30.24 30.27      
Oct 17 11:56 6 10 Partly Cloudy FEW070 SCT090 76 65     69%   76 30.25 30.28      
Oct 17 10:56 6 10 Mostly Cloudy BKN060 71 64     79%   72 30.25 30.29      
Oct 17 09:56 N 10 10 Mostly Cloudy FEW012 BKN036 69 64     84%     30.25 30.29      
Oct 17 08:56 NE 9 10 Mostly Clear FEW034 68 64     87%     30.23 30.27      
Oct 17 07:56 NNE 8 10 Cloudy FEW025 OVC036 66 64     93%     30.23 30.27      
Oct 17 07:23 NNE 7 10 Cloudy SCT020 BKN032 OVC041 66 64     94%     30.22        
Oct 17 06:56 N 7 10 Cloudy OVC020 66 65     96%     30.21 30.25 0   0
Oct 17 06:45 N 8 10 Cloudy SCT012 OVC020 66 64     94%     30.21   0    
Oct 17 05:56 N 7 10 Cloudy OVC010 67 66     97%     30.19 30.23 0    
Oct 17 05:51 N 8 10 Light Rain SCT006 OVC010 66 66     100%     30.19   0    
Oct 17 05:40 N 8 10 Cloudy OVC004 66 66     100%     30.19   0    
Oct 17 05:03 N 9 6 Light Rain and Fog/Mist BKN002 BKN013 OVC028 66 66     100%     30.18   0    
Oct 17 04:56 N 10 5 Heavy Rain and Fog/Mist SCT002 BKN013 OVC028 68 67     96%     30.17 30.2 0    
Oct 17 04:49 NNW 9 7 Light Rain FEW002 BKN013 OVC030 68 66     94%     30.17   0    
Oct 17 03:56 NNE 3 8 Cloudy BKN030 OVC036 67 67     100%     30.15 30.18 0 0  
Oct 17 03:36 NE 5 8 Cloudy FEW017 BKN036 OVC100 66 66     100%     30.15   0    
Oct 17 03:20 NE 3 5 Rain and Fog/Mist FEW014 BKN028 OVC047 66 66     100%     30.15   0    
Oct 17 02:56 NNW 3 8 Light Rain BKN035 OVC060 68 66     93%     30.15 30.18 0    
Oct 17 01:56 Calm 10 Cloudy SCT040 BKN048 OVC095 69 66     90%     30.15 30.17 0    
Oct 17 00:56 NE 6 10 Cloudy SCT050 OVC075 69 67     93%     30.14 30.17      
Oct 16 22:56 NNE 8 10 Mostly Cloudy BKN007 71 70     96%   72 30.17 30.2      
Oct 16 22:46 NNE 6 10 Partly Cloudy SCT007 72 70     94%   73 30.17        
Oct 16 21:56 N 8 10 Clear CLR 73 70     90%   74 30.16 30.19      
Oct 16 20:56 N 8 10 Clear CLR 74 71     91%   75 30.15 30.18      
Oct 16 19:56 NNW 6 10 Clear CLR 75 71     88%   76 30.14 30.17      
Oct 16 18:56 WNW 5 10 Clear   78 70     76%   79 30.12 30.16      
Oct 16 17:56 W 6 10 Clear CLR 80 69     69%   83 30.11 30.14      
Oct 16 16:56 W 6 10 Clear CLR 83 69     63%   87 30.1 30.13      
Oct 16 15:56 WSW 11 10 Partly Cloudy SCT043 85 69     59%   89 30.09 30.12      
Oct 16 14:56 WSW 10 10 Mostly Clear FEW037 85 70     61%   89 30.09 30.11      
Oct 16 13:56 SW 8 10 Mostly Clear FEW037 86 70     59%   91 30.1 30.13      
Oct 16 12:56 SSW 8 10 Partly Cloudy FEW036 SCT044 84 71     65%   89 30.12        
May 15 09:56 ENE 6 10 Cloudy BKN021 BKN026 OVC034 75 67     76%   76 30.02 30.05   0  
May 14 22:56 SE 6 10 Clear CLR 74 64     71%   74 30 30.02      
May 12 01:56 Calm 10 Clear CLR 69 59     70%     30.11 30.14      
Notice The following observation data may not be complete
Jun 12 07:35   10 Mostly Cloudy BKN004          %              
Jun 11 03:56 ESE 7 10 Clear CLR 71 65     81%   72 30.11 30.13      
Jun 08 23:56 Calm 10 Clear   68 61     78%     29.92 29.96      
Jun 08 19:56 Calm 10 Mostly Cloudy BKN050 BKN065 76 61     60%   76 29.89 29.92      
Jun 08 14:56 Calm 10 Mostly Cloudy SCT055 BKN075 78 57     48%   78 29.89 29.93      
Jun 08 06:56 ENE 9 10 Clear CLR 66 58     75%     29.9 29.94      
Jun 08 01:56 E 6 10 Cloudy BKN020 BKN026 OVC036 68 65     90%     29.86 29.89      
Jun 07 11:56 NE 13 10 Cloudy OVC021 76 67     74%   77 29.81 29.84      
Jun 06 10:52 NE 6 10 Mostly Cloudy BKN014 BKN039 77 72     83%   78 29.8        
Jun 06 10:19 N 5 10 Mostly Cloudy SCT011 BKN016 BKN024 75 72     89%   77 29.82        
Jun 06 04:38 SSE 3 10 Cloudy SCT002 OVC100 70 70     100%     29.82        
Jun 05 22:56 SE 5 10 Light Rain SCT026 BKN036 OVC085 73 72     96%   75 29.86 29.89 0    
Jun 05 16:56 SW 8 10 Partly Cloudy FEW019 SCT075 SCT100 79 71     77%   82 29.83 29.86